This is the latest recevied weather packets stored in our database for station/object KF7SOJ. If no packets are shown the sender has not sent any weather packets the latest 10 day(s).
| Time | Temp. | Humidity | Pressure | Rain* | Wind** | Luminosity | Snow |
|---|---|---|---|---|---|---|---|
| 1778041303 | 3.33° C | 43% | 935.4 hPa | 0 mm | - | 0 W/m² | - |
| 1778041002 | 3.33° C | 44% | 935.3 hPa | 0 mm | - | 0 W/m² | - |
| 1778040698 | 3.33° C | 44% | 935.2 hPa | 0 mm | - | 0 W/m² | - |
| 1778040400 | 2.78° C | 44% | 935.3 hPa | 0 mm | - | 0 W/m² | - |
| 1778040092 | 2.78° C | 44% | 935.3 hPa | 0 mm | - | 0 W/m² | - |
| 1778039789 | 2.78° C | 43% | 935.2 hPa | 0 mm | - | 0 W/m² | - |
| 1778039486 | 2.78° C | 43% | 935.1 hPa | 0 mm | - | 0 W/m² | - |
| 1778039183 | 2.78° C | 43% | 935.5 hPa | 0 mm | - | 0 W/m² | - |
| 1778038880 | 3.89° C | 41% | 935.3 hPa | 0 mm | - | 0 W/m² | - |
| 1778038577 | 3.89° C | 41% | 935.4 hPa | 0 mm | - | 0 W/m² | - |
| 1778038274 | 3.89° C | 41% | 935.2 hPa | 0 mm | - | 0 W/m² | - |
| 1778037972 | 3.89° C | 40% | 935.1 hPa | 0 mm | - | 0 W/m² | - |
| 1778037668 | 3.89° C | 40% | 935 hPa | 0 mm | - | 0 W/m² | - |
| 1778037366 | 4.44° C | 40% | 934.8 hPa | 0 mm | - | 0 W/m² | - |
| 1778037062 | 4.44° C | 40% | 934.9 hPa | 0 mm | - | 0 W/m² | - |
| 1778036761 | 3.89° C | 41% | 934.9 hPa | 0 mm | - | 0 W/m² | - |
| 1778036457 | 3.89° C | 42% | 934.8 hPa | 0 mm | - | 0 W/m² | - |
| 1778036155 | 3.89° C | 42% | 934.7 hPa | 0 mm | - | 0 W/m² | - |
| 1778035850 | 3.89° C | 42% | 934.7 hPa | 0 mm | - | 0 W/m² | - |
| 1778035548 | 4.44° C | 41% | 934.3 hPa | 0 mm | - | 0 W/m² | - |
| 1778035244 | 4.44° C | 41% | 934.2 hPa | 0 mm | - | 1 W/m² | - |
| 1778034940 | 5° C | 40% | 934.2 hPa | 0 mm | - | 2 W/m² | - |
| 1778034638 | 5.56° C | 39% | 934.3 hPa | 0 mm | - | 3 W/m² | - |
| 1778034335 | 5.56° C | 37% | 934.4 hPa | 0 mm | - | 6 W/m² | - |
| 1778034032 | 6.11° C | 37% | 934.2 hPa | 0 mm | - | 8 W/m² | - |
* Rain latest hour (hover to see other rain measurements)
** Current wind speed in m/s (hover to see current wind gust speed)